N3EYQ Weather Reports


Display with metric or nautical units.
time (UTC)temp
F
wind
direction
speed
MPH
gust
MPH
rain 1hr
in
rain 24hr
in
rain mn
in
humidity
%
barometer
mb
20210731180140 73 68 0.0 4.0 0.00 0.00 0.00 50 1014.2
20210731175638 73 68 0.0 4.0 0.00 0.00 0.00 48 1014.2
20210731175137 73 338 3.0 3.0 0.00 0.00 0.00 47 1014.2
20210731174636 73 338 0.0 3.0 0.00 0.00 0.00 50 1014.2
20210731174134 73 338 1.0 3.0 0.00 0.00 0.00 48 1014.2
20210731173632 73 338 0.0 3.0 0.00 0.00 0.00 48 1014.6
20210731173130 74 338 3.0 3.0 0.00 0.00 0.00 50 1014.6
20210731172631 73 338 1.0 3.0 0.00 0.00 0.00 49 1014.6
20210731172130 74 338 1.0 2.0 0.00 0.00 0.00 48 1014.6
20210731171629 74 338 1.0 2.0 0.00 0.00 0.00 49 1014.6
20210731171127 74 338 1.0 2.0 0.00 0.00 0.00 49 1014.6
20210731170626 74 338 0.0 2.0 0.00 0.00 0.00 49 1014.9
20210731170126 74 338 2.0 2.0 0.00 0.00 0.00 49 1014.9
20210731165622 73 338 0.0 2.0 0.00 0.00 0.00 51 1014.9
20210731165122 73 338 0.0 3.0 0.00 0.00 0.00 52 1014.9
20210731164621 72 338 1.0 4.0 0.00 0.00 0.00 51 1014.9
20210731164119 71 338 1.0 4.0 0.00 0.00 0.00 51 1014.9
20210731163618 72 338 2.0 3.0 0.00 0.00 0.00 52 1014.9
20210731163117 71 338 1.0 3.0 0.00 0.00 0.00 51 1015.2
20210731162615 71 338 1.0 3.0 0.00 0.00 0.00 52 1015.2
20210731162114 71 338 3.0 3.0 0.00 0.00 0.00 50 1015.2
20210731161612 70 338 2.0 3.0 0.00 0.00 0.00 52 1015.2
20210731161111 70 338 0.0 3.0 0.00 0.00 0.00 53 1015.2
20210731160610 71 338 1.0 3.0 0.00 0.00 0.00 54 1015.6
20210731160110 70 338 0.0 5.0 0.00 0.00 0.00 54 1015.6
20210731155607 70 338 3.0 5.0 0.00 0.00 0.00 50 1015.6
20210731155106 70 338 0.0 4.0 0.00 0.00 0.00 53 1015.6
20210731154605 70 338 2.0 4.0 0.00 0.00 0.00 52 1015.6
20210731154103 70 338 1.0 3.0 0.00 0.00 0.00 56 1015.6
20210731153603 69 338 1.0 4.0 0.00 0.00 0.00 57 1015.6
20210731153102 69 338 0.0 4.0 0.00 0.00 0.00 57 1015.9
20210731152601 70 338 1.0 3.0 0.00 0.00 0.00 57 1015.9
20210731152059 70 338 1.0 3.0 0.00 0.00 0.00 56 1015.9
20210731151557 69 338 0.0 1.0 0.00 0.00 0.00 59 1015.6
20210731151056 69 338 0.0 1.0 0.00 0.00 0.00 58 1015.9
20210731150555 70 338 0.0 2.0 0.00 0.00 0.00 56 1015.6
20210731150054 70 338 1.0 3.0 0.00 0.00 0.00 55 1015.9
20210731145653 70 338 1.0 3.0 0.00 0.00 0.00 55 1015.6
20210731145152 70 338 0.0 2.0 0.00 0.00 0.00 58 1015.9
20210731144651 68 338 0.0 4.0 0.00 0.00 0.00 58 1015.9
20210731144149 68 338 1.0 4.0 0.00 0.00 0.00 56 1015.6
20210731143650 68 338 3.0 3.0 0.00 0.00 0.00 55 1015.6
20210731143149 68 338 0.0 3.0 0.00 0.00 0.00 59 1015.9
20210731142649 68 338 2.0 3.0 0.00 0.00 0.00 56 1015.9
20210731142145 68 338 2.0 3.0 0.00 0.00 0.00 56 1015.6
20210731141645 68 338 2.0 3.0 0.00 0.00 0.00 59 1015.6
20210731141143 68 338 1.0 3.0 0.00 0.00 0.00 58 1015.6
20210731140642 67 338 1.0 3.0 0.00 0.00 0.00 62 1015.6
20210731140141 66 338 1.0 3.0 0.00 0.00 0.00 61 1015.6
20210731135623 66 338 2.0 3.0 0.00 0.00 0.00 64 1015.6
20210731135122 66 338 1.0 3.0 0.00 0.00 0.00 65 1015.6
20210731134638 65 338 1.0 3.0 0.00 0.00 0.00 65 1015.6
20210731134136 65 338 0.0 1.0 0.00 0.00 0.00 68 1015.6
20210731133635 65 338 0.0 1.0 0.00 0.00 0.00 69 1015.6
20210731133134 64 338 0.0 1.0 0.00 0.00 0.00 70 1015.6
20210731132632 64 338 0.0 1.0 0.00 0.00 0.00 70 1015.6
20210731132131 63 338 0.0 2.0 0.00 0.00 0.00 70 1015.9
20210731131630 63 338 0.0 2.0 0.00 0.00 0.00 71 1015.9
20210731131129 63 338 0.0 1.0 0.00 0.00 0.00 72 1015.9
20210731130628 62 338 0.0 1.0 0.00 0.00 0.00 73 1015.9
20210731130126 62 338 0.0 2.0 0.00 0.00 0.00 73 1015.9
20210731125625 62 338 0.0 2.0 0.00 0.00 0.00 73 1015.9
20210731125122 61 338 0.0 3.0 0.00 0.00 0.00 73 1015.9
20210731124622 61 338 0.0 3.0 0.00 0.00 0.00 74 1015.9
20210731124122 61 338 1.0 2.0 0.00 0.00 0.00 75 1015.6
20210731123620 61 338 0.0 2.0 0.00 0.00 0.00 76 1015.6
20210731123120 61 338 0.0 2.0 0.00 0.00 0.00 76 1015.6
20210731122618 61 338 0.0 2.0 0.00 0.00 0.00 76 1015.6
20210731122116 60 338 0.0 2.0 0.00 0.00 0.00 76 1015.6
20210731121616 60 338 0.0 3.0 0.00 0.00 0.00 76 1015.6
20210731121115 61 338 0.0 3.0 0.00 0.00 0.00 75 1015.6
20210731120613 61 338 0.0 2.0 0.00 0.00 0.00 76 1015.2
20210731120113 61 338 0.0 2.0 0.00 0.00 0.00 77 1015.2
20210731115611 61 338 1.0 1.0 0.00 0.00 0.00 77 1015.2
20210731115110 60 338 0.0 1.0 0.00 0.00 0.00 79 1015.2
20210731114607 60 338 0.0 1.0 0.00 0.00 0.00 79 1015.2
20210731114107 59 338 0.0 1.0 0.00 0.00 0.00 81 1015.2
20210731113606 59 338 1.0 1.0 0.00 0.00 0.00 82 1015.2
20210731113105 58 338 0.0 1.0 0.00 0.00 0.00 83 1015.2
20210731112604 57 338 1.0 1.0 0.00 0.00 0.00 84 1015.2
20210731112103 56 338 0.0 0.0 0.00 0.00 0.00 84 1015.2
20210731111601 55 338 0.0 0.0 0.00 0.00 0.00 85 1015.2
20210731111102 54 338 0.0 0.0 0.00 0.00 0.00 86 1015.2
20210731110600 53 338 0.0 0.0 0.00 0.00 0.00 86 1015.2
20210731110129 52 338 0.0 0.0 0.00 0.00 0.00 87 1014.9
20210731105557 51 338 0.0 0.0 0.00 0.00 0.00 87 1015.2
20210731105056 51 338 0.0 0.0 0.00 0.00 0.00 87 1015.2
20210731104554 50 338 0.0 0.0 0.00 0.00 0.00 86 1015.2
20210731104053 50 338 0.0 0.0 0.00 0.00 0.00 87 1014.9
20210731103551 50 338 0.0 0.0 0.00 0.00 0.00 86 1014.9
20210731103050 50 338 0.0 0.0 0.00 0.00 0.00 86 1014.9
20210731102549 50 338 0.0 0.0 0.00 0.00 0.00 86 1014.9
20210731102047 50 338 0.0 0.0 0.00 0.00 0.00 86 1015.2
20210731101547 50 338 0.0 0.0 0.00 0.00 0.00 86 1015.2
20210731101045 50 338 0.0 0.0 0.00 0.00 0.00 86 1015.2
20210731100544 50 338 0.0 0.0 0.00 0.00 0.00 86 1015.2
20210731100113 50 338 0.0 0.0 0.00 0.00 0.00 86 1015.2
20210731095641 50 338 0.0 0.0 0.00 0.00 0.00 86 1015.2
20210731095141 50 338 0.0 0.0 0.00 0.00 0.00 86 1015.2
20210731094710 50 338 0.0 0.0 0.00 0.00 0.00 86 1015.2
20210731094138 50 338 0.0 0.0 0.00 0.00 0.00 86 1015.2
20210731093707 50 338 0.0 0.0 0.00 0.00 0.00 86 1015.6
20210731093207 50 338 0.0 0.0 0.00 0.00 0.00 85 1015.6
20210731092705 50 338 0.0 0.0 0.00 0.00 0.00 85 1015.2
20210731092203 50 338 0.0 1.0 0.00 0.00 0.00 85 1015.2
20210731091703 50 338 0.0 1.0 0.00 0.00 0.00 85 1014.9
20210731091202 50 338 0.0 0.0 0.00 0.00 0.00 85 1014.9
20210731090700 50 338 0.0 0.0 0.00 0.00 0.00 85 1014.9
20210731090159 51 338 0.0 0.0 0.00 0.00 0.00 85 1014.9
20210731085657 51 338 0.0 1.0 0.00 0.00 0.00 84 1014.9
20210731085156 51 338 0.0 1.0 0.00 0.00 0.00 84 1014.9
20210731084625 51 338 0.0 0.0 0.00 0.00 0.00 84 1014.6
20210731084154 52 338 0.0 0.0 0.00 0.00 0.00 84 1014.6
20210731083652 52 338 0.0 0.0 0.00 0.00 0.00 84 1014.9
20210731083152 52 338 0.0 0.0 0.00 0.00 0.00 84 1014.6
20210731082620 52 338 0.0 0.0 0.00 0.00 0.00 83 1014.6
20210731082149 52 338 0.0 1.0 0.00 0.00 0.00 83 1014.6
20210731081617 52 338 0.0 1.0 0.00 0.00 0.00 84 1014.6
20210731081147 52 338 1.0 1.0 0.00 0.00 0.00 84 1014.6
20210731080616 52 338 0.0 1.0 0.00 0.00 0.00 83 1014.6
20210731080146 53 338 0.0 1.0 0.00 0.00 0.00 84 1014.2
20210731075613 52 338 0.0 1.0 0.00 0.00 0.00 83 1014.6
20210731075142 52 338 0.0 1.0 0.00 0.00 0.00 83 1014.6
20210731074641 52 338 0.0 1.0 0.00 0.00 0.00 83 1014.2
20210731074139 52 338 0.0 0.0 0.00 0.00 0.00 83 1014.6
20210731073639 52 338 0.0 0.0 0.00 0.00 0.00 83 1014.6
20210731073137 52 338 0.0 0.0 0.00 0.00 0.00 82 1014.6
20210731072635 52 338 0.0 0.0 0.00 0.00 0.00 82 1014.6
20210731072135 52 338 0.0 0.0 0.00 0.00 0.00 82 1014.6
20210731071633 52 338 0.0 0.0 0.00 0.00 0.00 83 1014.6
20210731071132 52 338 0.0 0.0 0.00 0.00 0.00 82 1014.6
20210731070631 52 338 0.0 0.0 0.00 0.00 0.00 82 1014.6
20210731070132 52 338 0.0 0.0 0.00 0.00 0.00 82 1014.6
20210731065631 53 338 0.0 0.0 0.00 0.00 0.00 82 1014.6
20210731065127 53 338 0.0 1.0 0.00 0.00 0.00 82 1014.6
20210731064626 52 338 0.0 1.0 0.00 0.00 0.00 82 1014.6
20210731064110 52 338 0.0 0.0 0.00 0.00 0.00 82 1014.6
20210731063609 52 338 0.0 0.0 0.00 0.00 0.00 82 1014.9
20210731063124 52 338 0.0 0.0 0.00 0.00 0.00 82 1014.9
20210731062623 52 338 0.0 0.0 0.00 0.00 0.00 82 1014.9
20210731062122 52 338 0.0 0.0 0.00 0.00 0.00 82 1014.9
20210731061620 52 338 0.0 0.0 0.00 0.00 0.00 81 1014.9
20210731061119 52 338 0.0 0.0 0.00 0.00 0.00 81 1014.9
20210731060618 52 338 0.0 0.0 0.00 0.00 0.00 81 1014.9
20210731060117 52 338 0.0 0.0 0.00 0.00 0.00 81 1014.9
20210731055615 52 338 0.0 0.0 0.00 0.00 0.00 81 1014.9
20210731055115 52 338 0.0 0.0 0.00 0.00 0.00 80 1014.9
20210731054613 52 338 0.0 0.0 0.00 0.00 0.00 80 1014.9
20210731054111 53 338 0.0 0.0 0.00 0.00 0.00 80 1014.9
20210731053610 53 338 0.0 0.0 0.00 0.00 0.00 79 1014.9
20210731053109 53 338 0.0 0.0 0.00 0.00 0.00 79 1014.9
20210731052607 53 338 0.0 0.0 0.00 0.00 0.00 79 1014.9
20210731052106 53 338 0.0 0.0 0.00 0.00 0.00 78 1014.9
20210731051605 54 338 0.0 0.0 0.00 0.00 0.00 78 1014.9
20210731051103 54 338 0.0 0.0 0.00 0.00 0.00 78 1014.9
20210731050603 54 338 0.0 0.0 0.00 0.00 0.00 78 1014.9
20210731050102 54 338 0.0 0.0 0.00 0.00 0.00 78 1014.9
20210731045700 54 338 0.0 0.0 0.00 0.00 0.00 78 1014.9
20210731045200 54 338 0.0 0.0 0.00 0.00 0.00 77 1014.9
20210731044658 55 338 0.0 0.0 0.00 0.00 0.00 78 1014.9
20210731044157 55 338 0.0 0.0 0.00 0.00 0.00 78 1014.9
20210731043657 55 338 0.0 0.0 0.00 0.00 0.00 78 1014.9
20210731043155 55 338 0.0 0.0 0.00 0.00 0.00 77 1014.9
20210731042654 55 338 0.0 0.0 0.00 0.00 0.00 76 1014.9
20210731042154 55 338 0.0 0.0 0.00 0.00 0.00 76 1014.9
20210731041653 56 338 0.0 0.0 0.00 0.00 0.00 76 1014.9
20210731041152 56 338 0.0 0.0 0.00 0.00 0.00 76 1014.9
20210731040649 56 338 0.0 0.0 0.00 0.00 0.00 76 1014.9
20210731040150 56 338 0.0 0.0 0.00 0.00 0.00 75 1014.9
20210731035649 56 338 0.0 1.0 0.00 0.00 0.00 74 1014.9
20210731035148 56 338 0.0 1.0 0.00 0.00 0.00 74 1014.9
20210731034652 56 338 0.0 0.0 0.00 0.00 0.00 73 1014.9
20210731034152 57 338 0.0 1.0 0.00 0.00 0.00 73 1014.9
20210731033643 57 338 0.0 1.0 0.00 0.00 0.00 73 1014.6
20210731033142 57 338 0.0 0.0 0.00 0.00 0.00 72 1014.6
20210731032641 58 338 0.0 1.0 0.00 0.00 0.00 72 1014.6
20210731032140 58 338 0.0 1.0 0.00 0.00 0.00 71 1014.6
20210731031639 58 338 0.0 0.0 0.00 0.00 0.00 71 1014.6
20210731031137 59 338 0.0 0.0 0.00 0.00 0.00 70 1014.6
20210731030635 59 338 0.0 0.0 0.00 0.00 0.00 69 1014.9
20210731030135 59 338 0.0 0.0 0.00 0.00 0.00 69 1014.6
20210731025634 59 338 0.0 0.0 0.00 0.00 0.00 68 1014.6
20210731025134 60 338 0.0 1.0 0.00 0.00 0.00 68 1014.9
20210731024632 60 338 0.0 2.0 0.00 0.00 0.00 68 1014.6
20210731024129 60 338 1.0 2.0 0.00 0.00 0.00 68 1014.6
20210731023628 61 338 0.0 0.0 0.00 0.00 0.00 67 1014.9
20210731023128 61 338 0.0 0.0 0.00 0.00 0.00 67 1014.6
20210731022626 61 338 0.0 2.0 0.00 0.00 0.00 66 1014.6
20210731022125 61 338 0.0 2.0 0.00 0.00 0.00 66 1014.6
20210731021624 61 338 0.0 0.0 0.00 0.00 0.00 67 1014.6
20210731021122 61 338 0.0 2.0 0.00 0.00 0.00 67 1014.6
20210731020621 61 338 0.0 2.0 0.00 0.00 0.00 67 1014.6
20210731020121 61 338 0.0 2.0 0.00 0.00 0.00 68 1014.2
20210731015618 61 338 0.0 2.0 0.00 0.00 0.00 68 1014.2
20210731015118 61 338 0.0 0.0 0.00 0.00 0.00 68 1014.2
20210731014616 61 338 0.0 0.0 0.00 0.00 0.00 68 1014.2
20210731014117 61 338 0.0 1.0 0.00 0.00 0.00 68 1014.2
20210731013615 61 338 0.0 1.0 0.00 0.00 0.00 69 1014.2
20210731013114 61 338 0.0 0.0 0.00 0.00 0.00 69 1014.2
20210731012614 61 338 0.0 0.0 0.00 0.00 0.00 68 1013.9
20210731012113 62 338 0.0 0.0 0.00 0.00 0.00 68 1013.9
20210731011610 62 338 0.0 0.0 0.00 0.00 0.00 67 1013.9
20210731011110 62 338 0.0 0.0 0.00 0.00 0.00 66 1013.5
20210731010609 62 338 0.0 0.0 0.00 0.00 0.00 66 1013.5
20210731010108 62 338 0.0 0.0 0.00 0.00 0.00 66 1013.5
20210731005606 63 338 0.0 0.0 0.00 0.00 0.00 65 1013.2
20210731005106 63 338 0.0 0.0 0.00 0.00 0.00 65 1013.2
20210731004604 63 338 0.0 0.0 0.00 0.00 0.00 65 1013.2
20210731004103 64 338 0.0 0.0 0.00 0.00 0.00 64 1012.9
20210731003602 64 338 0.0 0.0 0.00 0.00 0.00 64 1012.9
20210731003100 64 338 0.0 0.0 0.00 0.00 0.00 63 1012.5
20210731002559 65 338 0.0 0.0 0.00 0.00 0.00 62 1012.5
20210731002058 65 338 0.0 0.0 0.00 0.00 0.00 61 1012.5
20210731001556 65 338 0.0 0.0 0.00 0.00 0.00 60 1012.5
20210731001055 66 338 0.0 0.0 0.00 0.00 0.00 59 1012.5
20210731000554 66 338 0.0 0.0 0.00 0.00 0.00 58 1012.5
20210731000053 67 338 0.0 0.0 0.00 0.00 0.00 57 1012.5
20210730235653 67 338 0.0 0.0 0.00 0.00 0.00 57 1012.5
20210730235153 67 338 0.0 0.0 0.00 0.00 0.00 56 1012.2
20210730234652 68 338 0.0 0.0 0.00 0.00 0.00 55 1012.2
20210730234153 68 338 0.0 0.0 0.00 0.00 0.00 55 1012.2
20210730233654 68 338 0.0 2.0 0.00 0.00 0.00 54 1012.2
20210730233153 69 338 0.0 2.0 0.00 0.00 0.00 54 1011.9
20210730232652 69 338 2.0 2.0 0.00 0.00 0.00 53 1011.9
20210730232148 70 338 0.0 0.0 0.00 0.00 0.00 52 1011.9
20210730231643 70 338 0.0 1.0 0.00 0.00 0.00 52 1011.5
20210730231141 70 338 0.0 2.0 0.00 0.00 0.00 52 1011.5
20210730230640 70 338 0.0 2.0 0.00 0.00 0.00 52 1011.5
20210730230139 71 338 1.0 2.0 0.00 0.00 0.00 52 1011.5
20210730225638 71 338 1.0 2.0 0.00 0.00 0.00 52 1011.2
20210730225136 71 338 0.0 1.0 0.00 0.00 0.00 52 1011.2
20210730224635 72 338 0.0 1.0 0.00 0.00 0.00 50 1011.2
20210730224134 72 338 1.0 2.0 0.00 0.00 0.00 50 1011.2
20210730223633 72 338 0.0 2.0 0.00 0.00 0.00 50 1010.8
20210730223132 73 23 2.0 2.0 0.00 0.00 0.00 48 1010.8
20210730222630 73 315 1.0 2.0 0.00 0.00 0.00 48 1010.8
20210730222129 73 315 0.0 1.0 0.00 0.00 0.00 49 1010.8
20210730221628 73 315 0.0 1.0 0.00 0.00 0.00 47 1010.5
20210730221128 74 315 0.0 2.0 0.00 0.00 0.00 47 1010.8
20210730220626 74 315 1.0 3.0 0.00 0.00 0.00 46 1010.8
20210730220155 74 315 0.0 3.0 0.00 0.00 0.00 48 1010.5
20210730215623 75 315 0.0 2.0 0.00 0.00 0.00 47 1010.5
20210730215122 75 315 0.0 2.0 0.00 0.00 0.00 47 1010.5
20210730214621 75 315 1.0 3.0 0.00 0.00 0.00 46 1010.5
20210730214120 75 315 2.0 3.0 0.00 0.00 0.00 46 1010.5
20210730213619 75 315 1.0 4.0 0.00 0.00 0.00 46 1010.5
20210730213117 76 315 2.0 4.0 0.00 0.00 0.00 46 1010.5
20210730212616 76 315 1.0 3.0 0.00 0.00 0.00 46 1010.2
20210730212114 76 315 0.0 3.0 0.00 0.00 0.00 48 1010.2
20210730211613 76 315 0.0 3.0 0.00 0.00 0.00 49 1009.8
20210730211113 77 315 0.0 3.0 0.00 0.00 0.00 48 1009.8
20210730210611 77 315 1.0 2.0 0.00 0.00 0.00 48 1009.8
20210730210140 77 315 0.0 3.0 0.00 0.00 0.00 48 1009.8
20210730205608 77 315 1.0 3.0 0.00 0.00 0.00 47 1009.8
20210730205107 77 315 2.0 6.0 0.00 0.00 0.00 48 1009.8
20210730204606 77 315 0.0 6.0 0.00 0.00 0.00 46 1009.5
20210730204105 78 315 1.0 5.0 0.00 0.00 0.00 46 1009.5
20210730203603 78 338 0.0 3.0 0.00 0.00 0.00 48 1009.5
20210730203102 78 338 1.0 3.0 0.00 0.00 0.00 47 1009.5
20210730202601 78 338 1.0 3.0 0.00 0.00 0.00 46 1009.1
20210730202059 78 338 1.0 4.0 0.00 0.00 0.00 45 1009.5
20210730201558 78 338 1.0 4.0 0.00 0.01 0.00 47 1009.5
20210730201057 78 248 0.0 4.0 0.00 0.02 0.00 47 1009.5
20210730200627 78 248 2.0 4.0 0.00 0.03 0.00 47 1009.5
20210730200125 78 225 3.0 3.0 0.00 0.04 0.00 45 1009.5
20210730195553 77 225 1.0 3.0 0.00 0.05 0.00 48 1009.5
20210730195040 77 225 2.0 3.0 0.00 0.06 0.00 48 1009.5
20210730194543 77 315 0.0 5.0 0.00 0.07 0.00 48 1009.5
20210730194049 78 315 3.0 7.0 0.00 0.07 0.00 48 1009.5
20210730193548 77 315 2.0 7.0 0.00 0.07 0.00 49 1009.1
20210730193117 78 338 0.0 4.0 0.00 0.07 0.00 47 1009.1
20210730192617 79 338 2.0 4.0 0.00 0.07 0.00 49 1009.5
20210730192046 79 158 2.0 4.0 0.00 0.07 0.00 50 1009.1
20210730191544 79 135 1.0 4.0 0.00 0.07 0.00 49 1009.1
20210730191113 79 203 1.0 3.0 0.00 0.07 0.00 50 1009.1
20210730190612 79 203 0.0 2.0 0.00 0.08 0.00 51 1009.1
20210730190110 80 225 2.0 2.0 0.00 0.08 0.00 49 1009.1
20210730185639 80 225 1.0 2.0 0.00 0.08 0.00 50 1008.8
20210730185209 80 225 0.0 3.0 0.00 0.08 0.00 51 1008.8
20210730184707 79 225 2.0 3.0 0.00 0.08 0.00 50 1008.8
20210730184206 79 225 2.0 3.0 0.00 0.08 0.00 50 1009.1
20210730183705 78 225 2.0 3.0 0.00 0.08 0.00 50 1008.8
20210730183204 79 90 1.0 3.0 0.00 0.08 0.00 51 1008.8
20210730182703 80 338 3.0 3.0 0.00 0.08 0.00 48 1008.8
20210730182201 81 338 1.0 3.0 0.00 0.08 0.00 50 1008.8
20210730181701 81 338 1.0 2.0 0.00 0.08 0.00 51 1008.8
20210730181159 81 338 1.0 3.0 0.00 0.08 0.00 51 1008.5
20210730180658 80 338 2.0 3.0 0.00 0.08 0.00 52 1008.5